Location: *
(49.9853°N, 3.5569°E)
Time: 11:38:10
(UTC+00:00)

SL-16 R/B - Pass Details

Date: 22 September 2019
Orbit: 840 x 849 km, 71.0° (Epoch: 17 October)

Event Time Altitude Azimuth Distance (km) Brightness Sun altitude
Rises 20:58:46 0° 321° (NW) 3,417 6.5 -29.4°
Reaches altitude 10° 21:01:47 10° 306° (NW) 2,479 5.5 -29.7°
Maximum altitude 21:05:52 21° 259° (W) 1,832 4.2 -30.2°
Enters shadow 21:08:05 17° 230° (SW) 2,040 4.2 -30.5°
